Location: Petrozavodsk
(61.7857°N, 34.3593°E)
Time: 21:05:01
(UTC+03:00)

Terra - Pass Details

Date: 28 October 2019
Orbit: 701 x 703 km, 98.2° (Epoch: 13 November)

Event Time Altitude Azimuth Distance (km) Brightness Sun altitude
Exits shadow 22:21:34 22° 339° (NNW) 1,522 4.0 -36.5°
Drops below altitude 10° 22:23:15 10° 341° (NNW) 2,185 5.0 -36.6°
Sets 22:25:32 0° 342° (NNW) 3,107 6.0 -36.8°
